www.pogodaiklimat.ru

Погода и климат >> Архив погоды >> Казахстан >> Тайпак


ПОГОДА в Тайпаке

АРХИВ ПОГОДЫ в Тайпаке

Время (UTC), дата Ветер
(напр.,м/с)
 
Видим.   Явления Облачность Т
(С)
Тd
(С)
f
(%)
Тe
(С)
Тes
(С)
Комфортность P
(гПа)
Po
(гПа)
Тmin
(С)
Tmax
(С)
R
(мм)
R24
(мм)
S
(см)
03 5.12 СВ 8 н/о 10/0
[Ac As]
-5.4 -6.8 90 -14 -14 1025.4 1025.2
06 5.12 ЮВ 8 10 км 9/9 600 м
[Sc]
-4.8 -6.8 86 -14 -14 1025.8 1025.6 -6.0
09 5.12 Ю 10 10 км 6/0
[Ci fib]
-2.1 -7.1 69 -11 -11 1024.4 1024.2
12 5.12 Ю 8 10 км 5/0
[Ci fib]
-0.5 -8.9 53 -8 -8 1022.7 1022.5
15 5.12 Ю 9 н/о 6/0
[Ci fib]
-2.4 -8.0 65 -11 -11 1021.6 1021.4 +0.3
18 5.12 Ю 9 н/о 10/10 600 м
[Sc]
-3.0 -8.2 67 -11 -11 1021.0 1020.8 +0.3
21 5.12 Ю 9 н/о 10/10 600 м
[Sc]
-3.7 -8.5 69 -12 -12 1020.1 1019.9
00 6.12 ЮВ 8 н/о 10/10 600 м
[Sc]
-3.8 -7.9 73 -12 -12 1019.1 1018.9
03 6.12 ЮВ 8 н/о 10/10 600 м
[Sc]
-3.3 -8.4 68 -11 -11 1017.7 1017.5
06 6.12 ЮВ 7 10 км 10/10 600 м
[Sc]
-2.9 -8.3 66 -10 -10 1017.4 1017.2 -4.0
09 6.12 Ю 9 10 км 10/0
[Ac As]
+0.2 -8.7 51 -7 -7 1015.4 1015.2
12 6.12 ЮВ 5 10 км 10/10 600 м
[Sc]
+0.4 -8.8 50 -5 -5 1014.3 1014.1
15 6.12 ЮВ 5 10 км 10/10 600 м
[Sc]
+0.4 -8.8 50 -5 -5 1014.3 1014.1
18 6.12 Ю 3 н/о в посл. час снег 10/0 600 м
[As op]
-0.2 -5.0 70 -5 -5 1012.1 1011.9 +1.1 0.0
21 6.12 ЮВ 5 н/о снег 10/0 600 м
[As op]
-1.9 -3.7 87 -8 -8 1011.5 1011.3
00 7.12 Ю 4 н/о снег 10/0 600 м
[As op]
-2.2 -3.4 91 -8 -8 1010.2 1010.0
03 7.12 Ю 2 н/о снег 10/0 600 м
[As op]
-1.9 -3.4 89 -6 -6 1010.3 1010.1 8
06 7.12 ЮЗ 2 10 км {снег} 10/10 600 м
[Sc]
-1.1 -3.0 87 -5 -5 1011.3 1011.1 -2.4 7
09 7.12 З 2 10 км 8/8 600 м
[Sc]
-2.6 -5.9 78 -6 -6 1011.4 1011.2
12 7.12 ЮЗ 2 200 м туман ?/? -5.0 -5.3 98 -9 -9 1011.5 1011.3
15 7.12 ЮЗ 3 н/о переохл. туман [диам. изморози 2 мм] ?/? -5.9 -6.3 97 -12 -12 1011.9 1011.7 -0.8
18 7.12 ЮЗ 2 н/о переохл. туман [диам. изморози 5 мм] ?/? -5.1 -5.4 98 -10 -10 1011.0 1010.8 -0.8 0.6
21 7.12 ЮЗ 2 н/о {туман} [диам. изморози 8 мм] 10/10 600 м
[St]
-4.8 -5.2 97 -9 -9 1010.1 1009.9
00 8.12 ЮЗ 2 н/о {туман} [диам. изморози 8 мм] 10/10 600 м
[Sc]
-2.4 -3.3 94 -7 -7 1009.4 1009.2
03 8.12 ЮЗ 1 н/о дымка [диам. изморози 8 мм] 10/10 600 м
[St]
-2.9 -3.6 95 -5 -5 1009.8 1009.6 8
06 8.12 Ю 1 10 км слабый снег {туман} [диам. изморози 8 мм] 10/0 600 м
[As op]
-4.4 -6.0 89 -7 -7 1009.8 1009.6 -5.3
09 8.12 З 2 10 км {снег} [диам. изморози 8 мм] 10/0 600 м
[As op]
-1.9 -3.7 87 -6 -5 1009.7 1009.5
12 8.12 ЮЗ 2 10 км в посл. час туман {снег} [диам. изморози 8 мм] 10/10 600 м
[St]
-3.5 -4.9 90 -8 -8 1010.2 1010.0
15 8.12 З 1 н/о [диам. изморози 8 мм] 9/9 600 м
[Sc]
-4.1 -5.3 91 -7 -7 1011.1 1010.9 -1.0
18 8.12 ЮЗ 1 н/о [диам. изморози 8 мм] 10/10 600 м
[Sc]
-4.5 -6.1 89 -7 -7 1012.2 1012.0 -1.0 0.3
21 8.12 ЮЗ 4 н/о [диам. изморози 8 мм] 10/10 600 м
[Sc]
-4.2 -6.1 87 -11 -11 1014.0 1013.8
00 9.12 ЮЗ 3 н/о 10/10 600 м
[Sc]
-6.4 -8.0 88 -12 -12 1015.8 1015.6
03 9.12 З 3 н/о 10/10 600 м
[Sc]
-5.0 -6.7 88 -11 -11 1017.8 1017.6 10
06 9.12 З 3 10 км 10/10 600 м
[Sc]
-3.6 -5.8 85 -9 -9 1019.7 1019.5 -6.7
09 9.12 З 5 10 км 10/10 600 м
[Sc]
-3.0 -6.4 77 -10 -10 1021.5 1021.3
12 9.12 З 2 10 км 10/10 600 м
[Sc]
-2.7 -6.8 73 -6 -6 1022.9 1022.7
15 9.12 З 3 н/о 10/10 600 м
[Sc]
-3.8 -6.4 82 -9 -9 1024.3 1024.1 -2.4
18 9.12 З 3 н/о 10/10 600 м
[Sc]
-4.4 -6.4 86 -10 -10 1025.2 1025.0 -2.4
21 9.12 З 3 н/о 8/8 600 м
[Sc]
-5.9 -7.4 89 -12 -12 1026.1 1025.9
00 10.12 З 2 н/о 8/8 600 м
[Sc]
-6.3 -7.5 91 -11 -11 1027.0 1026.8
03 10.12 З 2 н/о ясно -11.4 -12.7 90 -16 -16 1027.6 1027.4 10
06 10.12 штиль 0 500 м переохл. туман [диам. изморози 4 мм] ?/? -13.5 -14.1 95 -14 -14 1028.2 1028.0 -11.7
09 10.12 З 2 10 км {туман} ясно -6.9 -10.2 77 -11 -9 1028.5 1028.3
12 10.12 Ю 2 10 км {туман} 8/0
[Ac trans]
-4.9 -8.5 76 -9 -9 1028.1 1027.9
15 10.12 штиль 0 н/о 10/10 600 м
[Sc]
-4.5 -6.8 84 -5 -5 1028.3 1028.1 -4.2
18 10.12 ЮЗ 2 н/о 10/10 600 м
[Sc]
-3.4 -6.2 81 -7 -7 1028.1 1027.9 -4.2
21 10.12 ЮВ 2 н/о 10/10 600 м
[Sc]
-3.0 -5.0 86 -7 -7 1028.9 1028.7
00 11.12 ЮВ 3 н/о 10/10 600 м
[Sc]
-3.3 -5.0 88 -9 -9 1028.7 1028.5
03 11.12 ЮВ 3 н/о 10/10 600 м
[Sc]
-4.3 -7.0 81 -10 -10 1029.0 1028.8 9
06 11.12 ЮЗ 3 10 км 10/10 600 м
[Sc]
-5.9 -8.5 82 -11 -11 1029.9 1029.7 -4.5
09 11.12 ЮВ 3 10 км 10/0
[Ac As]
-4.1 -7.9 75 -9 -9 1030.5 1030.3
12 11.12 Ю 4 10 км 10/0
[Ac As]
-3.2 -7.5 72 -9 -9 1030.1 1029.9
15 11.12 Ю 4 н/о 10/10 600 м
[Sc]
-4.3 -7.7 77 -10 -10 1030.7 1030.5 -2.9
18 11.12 Ю 3 н/о 10/10 600 м
[Sc]
-4.7 -7.1 83 -10 -10 1031.3 1031.1 -2.9
21 11.12 ЮВ 3 н/о слабый снег 10/0 600 м
[As op]
-5.1 -6.8 88 -11 -11 1030.9 1030.7
00 12.12 ЮВ 2 н/о слабый снег 10/0 600 м
[As op]
-5.0 -6.7 88 -9 -9 1030.6 1030.4

 

Местоположение метеостанции Тайпак (Западно-Казахстанская область, Казахстан): широта 49.05 долгота 51.87 высота над уровнем моря 2 м.

В архиве по умолчанию представлена погода в Тайпаке за последнюю неделю. Архивные данные за месяц целиком и за предыдущие месяцы, начиная с января 2011 года, Вы можете получить, выбрав интересующий диапазон дат из раскрывающегося списка и нажав кнопку "Ввод!".

Внимание! Время в таблицах - всемирное. Для получения местного времени необходимо прибавить поправку, которая в Тайпаке равна 5 ч.

Смотрите также архив погоды в соседних городах и на ближайших метеорологических станциях:

Погода в Индерборском (Атырауская область, Казахстан) (62 км)
Погода в Карабау (Атырауская область, Казахстан) (102 км)
Погода в Жангала (Западно-Казахстанская область, Казахстан) (116 км)
Погода в Каратобе (Западно-Казахстанская область, Казахстан) (131 км)
Погода в Чапаево (Западно-Казахстанская область, Казахстан) (137 км)
Погода в Джамбейты (Западно-Казахстанская область, Казахстан) (143 км)
Погода в Махамбете (Атырауская область, Казахстан) (155 км)
Погода в Жалпактале (Западно-Казахстанская область, Казахстан) (186 км)
Погода в Макате (Атырауская область, Казахстан) (189 км)
Погода в Анкаты (Западно-Казахстанская область, Казахстан) (198 км)

Пояснения к столбцам:

Ветер - указаны скорость ветра в м/с - средняя за 10 мин, порывы в срок и между сроками (в фигурных скобках) и направление, откуда дует ветер: С - северный, СВ - северо-восточный, В - восточный, ЮВ - юго-восточный, Ю - южный, ЮЗ - юго-западный, З - западный, СЗ - северо-западный.
Видимость - горизонтальная дальность видимости в метрах или километрах. При видимости от 1 до 10 км при отсутствии осадков обычно наблюдается дымка, при ухудшении видимости до 1 км и менее - туман. В сухую погоду видимость может ухудшаться дымом, пылью или мглою.
Явления - указаны атмосферные явления, наблюдавшиеся в срок или в последний час перед сроком; фигурными скобками обозначены явления, наблюдавшиеся между сроками (за 1-3 часа до срока); квадратными скобками обозначены град или гололедные отложения с указанием их диаметра в мм.
Облачность - указаны через наклонную черту общая и нижняя облачность в баллах и высота нижней границы облаков в метрах; квадратными скобками обозначены формы облаков: Ci - перистые, Cs - перисто-слоистые, Cc - перисто-кучевые, Ac - высококучевые, As - высокослоистые, Sc - слоисто-кучевые, Ns - слоисто-дождевые, Cu - кучевые, Cb - кучево-дождевые. Подробнее классификацию облаков см. в Атласе облаков (PDF).
T - Температура воздуха - температура, измеренная на высоте 2 м над землей.
Td - Температура точки росы - температура, при понижении до которой содержащийся в воздухе водяной пар достигнет насыщения.
f - Относительная влажность воздуха - влажноcть воздуха, измеренная на высоте 2 м над землей.
Te - Эффективная температура - температура, которую ощущает одетый по сезону человек в тени. Характеристика душности погоды. При расчете учитывается влияние влажности воздуха и скорости ветра на теплоощущения человека.
Tes - Эффективная температура на солнце - температура, которую ощущает человек, с поправкой на солнечный нагрев. Характеристика знойности погоды. Зависит от высоты солнца над горизонтом, облачности и скорости ветра. Ночью, в пасмурную погоду, а также при ветре 12 м/с и более поправка равна нулю.
P - Атмосферное давление - приведенное к уровню моря атмосферное давление.
Po - Атмосферное давление - измеренное на уровне метеостанции атмосферное давление.
Tmin - Минимальная температура - минимум температуры воздуха на высоте 2 м над землей.
Tmax - Максимальная температура - максимум температуры воздуха на высоте 2 м над землей.
R - Количество осадков - Количество выпавших осадков за период времени, мм. При наведении курсора мыши на число - период времени, за который выпало указанное количество осадков.
R24 - Количество осадков - Количество выпавших осадков за 24 часа, мм.
S - Снежный покров - Высота снежного покрова, см. При наведении курсора мыши на число - состояние снежного покрова и степень покрытия местности в баллах.